Regional Weather Roundup
Issued by NWS

Home | Current Version | Previous Version | Text Only | Print | Product List | Glossary On
Versions: 1 2 3 4 5 6 7 8 9 10 11 12 13 14 15 16 17 18 19 20 21 22 23 24 25 26 27 28 29 30 31 32 33 34 35 36 37 38 39 40 41 42 43 44 45 46 47 48 49 50
000
ASUS43 KMKX 201111
RWRWI

WISCONSIN REGIONAL WEATHER ROUNDUP
NATIONAL WEATHER SERVICE MILWAUKEE/SULLIVAN WI
600 AM CDT THU JUL 20 2017

NOTE: "FAIR" INDICATES FEW OR NO CLOUDS BELOW 12,000 FEET WITH NO
SIGNIFICANT WEATHER AND/OR OBSTRUCTIONS TO VISIBILITY.

WIZ001-002-006>008-014>016-023>028-201200-
NORTHWEST WISCONSIN

CITY           SKY/WX    TMP DP  RH WIND       PRES   REMARKS
SUPERIOR ARPT  NOT AVBL
ASHLAND        CLEAR     58  57  97 SW7       29.93R
HAYWARD        CLOUDY    54  52  93 CALM      29.98R
SIREN          FOG       60  59  97 CALM      29.97R VSB 1
CUMBERLAND     FOG       57  55  94 CALM      29.98S VSB<1/4
RICE LAKE      FOG       58  57  97 CALM      29.99R VSB<1/4
CHETEK         PTCLDY    60  60 100 CALM      29.98F
LADYSMITH      CLEAR     60  59  96 CALM      30.00R FOG
EAU CLAIRE     FOG       67  67 100 CALM      29.97R VSB 1/4
MENOMONIE      FOG       66  65  99 CALM      29.98R VSB<1/4
NEW RICHMOND   FOG       61  61  99 CALM      29.99R VSB 1/4
OSCEOLA        FOG       62  62 100 CALM      30.01R VSB 1/4
$$

WIZ003>005-009-010-017-018-201200-
NORTH CENTRAL WISCONSIN

CITY           SKY/WX    TMP DP  RH WIND       PRES   REMARKS
MANITOWISH WTR CLEAR     57  57 100 CALM      29.97R
ARBOR VITAE    CLEAR     59  58  94 CALM      29.97R
WOODRUFF       CLEAR     59  58  94 CALM      29.97R
RHINELANDER    CLEAR     61  61 100 W6        29.98R
EAGLE RIVER    PTCLDY    56  56 100 CALM      29.96R FOG
LAND O LAKES   CLEAR     53  53 100 CALM      29.98R FOG
PHILLIPS       CLEAR     60  60 100 CALM      29.98S
TOMAHAWK         N/A     55  54  96 CALM      29.99R FOG
MEDFORD        FOG       65  64  99 W3        29.98S VSB 1/2
MERRILL        CLOUDY    63  63 100 CALM      29.98R
$$

WIZ029-030-035-036-043>047-201200-
CENTRAL WISCONSIN

CITY           SKY/WX    TMP DP  RH WIND       PRES   REMARKS
WAUSAU         CLOUDY    68  66  93 W8        29.97R
MOSINEE        CLOUDY    68  66  94 SW8       30.00R
MARSHFIELD     CLOUDY    67  65  93 W6        29.98R
STEVENS POINT  CLOUDY    66  66 100 SW7       30.00R
WAUPACA        CLOUDY    70  69  96 W7        29.98S
WAUTOMA        CLOUDY    67  66  97 SW3       29.99S
WISC RAPIDS    CLOUDY    68  67  96 SW7       29.99S
CAMP DOUGLAS   CLOUDY    67  67  99 SW5       29.99R
$$

WIZ011>013-019>022-031-037>040-048>050-201200-
NORTHEAST WISCONSIN

CITY           SKY/WX    TMP DP  RH WIND       PRES   REMARKS
ANTIGO         CLOUDY    65  64  97 W9        29.98R
SHAWANO        CLOUDY    72  66  83 SW8       29.96R
OCONTO         CLOUDY    67  64  91 SW9       29.94R
STURGEON BAY     N/A     70  66  87 W14G20    29.94R
GREEN BAY      CLOUDY    69  68  96 W9        29.97R
MANITOWOC      CLOUDY    70  66  87 W8        29.97R
APPLETON       PTCLDY    66  66 100 W12       29.97R
CLINTONVILLE   CLOUDY    70  64  83 W7        29.98R
OSHKOSH        CLOUDY    68  65  90 VRB6      29.98R
$$

WIZ032>034-041-042-053>061-201200-
SOUTHWEST WISCONSIN

CITY           SKY/WX    TMP DP  RH WIND       PRES   REMARKS
LA CROSSE      CLOUDY    71  68  90 S8        29.97R
SPARTA         CLOUDY    65  65 100 CALM      29.99R
VIROQUA        CLOUDY    66  66 100 SE9       30.01S
BOSCOBEL       CLOUDY    69  66  90 CALM      30.00S
PRAIRIE DU CHI RAIN      67  66  96 CALM      30.01R
PLATTEVILLE    CLOUDY    68  68 100 E9        30.02S
$$

WIZ056-057-062-063-064-067-068-201200-
SOUTH CENTRAL WISCONSIN

CITY           SKY/WX    TMP DP  RH WIND       PRES   REMARKS
REEDSBURG      CLOUDY    66  66 100 CALM      29.99F
BARABOO/DELLS  CLOUDY    66  65  94 S7        29.98F
LONE ROCK      CLOUDY    67  65  93 CALM      30.00R
MINERAL POINT  CLOUDY    66  66 100 E10       30.02S
MADISON        LGT RAIN  68  67  96 SE5       30.00F
MIDDLETON      CLOUDY    68  68 100 S5        29.99F
WATERTOWN      LGT RAIN  66  66 100 CALM      30.03R
MONROE         TSTM      66  64  94 E10G16    29.99F
JANESVILLE     HVY RAIN  68  68 100 E15       30.03R
$$

WIZ051-052-058>065-066-070>072-201200-
SOUTHEAST WISCONSIN

CITY           SKY/WX    TMP DP  RH WIND       PRES   REMARKS
MILWAUKEE      RAIN      71  67  87 SW8       30.04S
WAUKESHA       LGT RAIN  66  64  94 S3        30.04F FOG
MILWAUKEE/TIMM RAIN      68  63  83 SW8       30.03F
RACINE         CLOUDY    69  68  96 CALM      30.06S FOG
KENOSHA        HVY RAIN  69  66  90 CALM      30.05R FOG
FOND DU LAC    LGT RAIN  68  65  90 SW6       29.99R
SHEBOYGAN      CLOUDY    68  67  96 W6        29.98R
WEST BEND      RAIN      66  64  94 SW15      29.97F
JUNEAU         LGT RAIN  66  65  97 SW9       30.03R
$$

LSZ147-162-201200-
LAKE SUPERIOR

STATION/POSITION TIME  TEMP    WIND        PRES    WAVE
                       AIR SEA DIR/SP/G            HT/PER
                 (UTC) (F)     (DEG/KT/KT) (MB)    (FT/S)
W MID LAKE BUOY  1050   49 47  250/  8/ 10 1012.4R   0
DEVILS ISLAND    1100   58     240/ 10/ 12 1013.0F
SAXON HARBOR     1030   61     190/  5/  8 1012.9R
$$

LMZ867-665-643>646-201200-
LAKE MICHIGAN

STATION/POSITION TIME  TEMP    WIND        PRES    WAVE
                       AIR SEA DIR/SP/G            HT/PER
                 (UTC) (F)     (DEG/KT/KT) (MB)    (FT/S)
CHAMBERS ISLAND  1040   68     230/  3/  5 1012.2R
S GREEN BAY BUOY 1100   71 71  230/ 17/ 19 1013.6
N MID LAKE BUOY  1050   67 64  210/ 10/ 12 1012.7R   1
NORTHPORT PIER   1040   63     210/  2/  4 1012.5R
KEWAUNEE LAKESHO 1048   71     270/  8/ 15 1013.3R
SHEBOYGAN LAKESH 1100   69     240/  5/  7 1014.7R
PORT WASHINGTON  1030   69     240/ 10/ 20 1015.2F
ATWATER BUOY     0939   70 68  220/  8/ 10 1016.3R
MILWAUKEE LAKESH 1050   69     260/  6/  7   N/A
S MID LAKE BUOY  1050   69 69  280/ 10/ 12 1016.6R   2/ 4
KENOSHA   LAKESH 1100   69      CALM  /  3 1017.3
$$

TC  - TEMPERATURE IN CELSIUS
VSB - VISIBILITY IN STATUTE MILES
WCI - WIND CHILL INDEX
HX  - HEAT INDEX




USA.gov is the U.S. government's official web portal to all federal, state and local government web resources and services.